Time,TemperatureF,DewpointF,PressureIn,WindDirection,WindDirectionDegrees,WindSpeedMPH,WindSpeedGustMPH,Humidity,HourlyPrecipIn,Conditions,Clouds,dailyrainin,SoftwareType,DateUTC
2013-10-04 00:01:00,75.1,67.0,29.71,SSW,203,3.1,4.7,76,0.00,,,0.00,WUHU216HW,2013-10-04 05:01:00,
2013-10-04 00:02:00,74.9,66.9,29.71,South,180,4.3,4.7,76,0.00,,,0.00,WUHU216HW,2013-10-04 05:02:00,
2013-10-04 00:03:00,74.9,66.9,29.71,SE,135,2.7,4.7,76,0.00,,,0.00,WUHU216HW,2013-10-04 05:03:00,
2013-10-04 00:05:00,74.9,66.9,29.71,South,180,4.9,4.9,76,0.00,,,0.00,WUHU216HW,2013-10-04 05:05:00,
2013-10-04 00:06:00,74.9,66.9,29.71,SSE,158,4.7,4.9,76,0.00,,,0.00,WUHU216HW,2013-10-04 05:06:00,
2013-10-04 00:11:00,74.5,66.5,29.71,SE,135,2.7,5.4,76,0.00,,,0.00,WUHU216HW,2013-10-04 05:11:00,
2013-10-04 00:13:00,74.5,66.5,29.71,SE,135,3.4,5.4,76,0.00,,,0.00,WUHU216HW,2013-10-04 05:13:00,
2013-10-04 00:15:00,74.5,66.9,29.71,South,180,5.1,5.4,77,0.00,,,0.00,WUHU216HW,2013-10-04 05:15:00,
2013-10-04 00:18:00,74.3,66.7,29.71,SSW,203,5.1,5.4,77,0.00,,,0.00,WUHU216HW,2013-10-04 05:18:00,
2013-10-04 00:19:00,74.3,66.7,29.71,South,180,6.3,6.3,77,0.00,,,0.00,WUHU216HW,2013-10-04 05:19:00,
2013-10-04 00:20:00,74.3,66.7,29.71,South,180,2.5,6.3,77,0.00,,,0.00,WUHU216HW,2013-10-04 05:20:00,
2013-10-04 00:24:00,74.2,66.5,29.71,SE,135,1.3,6.7,77,0.00,,,0.00,WUHU216HW,2013-10-04 05:24:00,
2013-10-04 00:31:00,74.0,66.7,29.70,SSE,158,6.0,6.9,78,0.00,,,0.00,WUHU216HW,2013-10-04 05:31:00,
2013-10-04 00:36:00,74.0,66.7,29.70,South,180,4.3,6.9,78,0.00,,,0.00,WUHU216HW,2013-10-04 05:36:00,
2013-10-04 00:41:00,73.8,66.6,29.70,SSE,158,6.7,6.7,78,0.00,,,0.00,WUHU216HW,2013-10-04 05:41:00,
2013-10-04 00:46:00,73.8,66.6,29.71,South,180,7.8,7.8,78,0.00,,,0.00,WUHU216HW,2013-10-04 05:46:00,
2013-10-04 00:51:00,73.4,66.3,29.70,South,180,5.4,7.8,78,0.00,,,0.00,WUHU216HW,2013-10-04 05:51:00,
2013-10-04 00:56:00,73.3,66.1,29.70,SE,135,4.3,5.4,78,0.00,,,0.00,WUHU216HW,2013-10-04 05:56:00,
2013-10-04 01:01:00,73.1,66.3,29.70,SSE,158,4.0,4.7,79,0.00,,,0.00,WUHU216HW,2013-10-04 06:01:00,
2013-10-04 01:06:00,72.9,66.1,29.70,SE,135,3.6,6.5,79,0.00,,,0.00,WUHU216HW,2013-10-04 06:06:00,
2013-10-04 01:11:00,72.7,66.2,29.70,SE,135,6.3,6.5,80,0.00,,,0.00,WUHU216HW,2013-10-04 06:11:00,
2013-10-04 01:16:00,72.7,66.2,29.70,SSE,158,6.3,6.5,80,0.00,,,0.00,WUHU216HW,2013-10-04 06:16:00,
2013-10-04 01:21:00,72.4,65.9,29.70,South,180,4.0,8.5,80,0.00,,,0.00,WUHU216HW,2013-10-04 06:21:00,
2013-10-04 01:26:00,72.4,65.9,29.70,South,180,8.5,8.5,80,0.00,,,0.00,WUHU216HW,2013-10-04 06:26:00,
2013-10-04 01:31:00,72.2,65.7,29.70,South,180,3.8,8.5,80,0.00,,,0.00,WUHU216HW,2013-10-04 06:31:00,
2013-10-04 01:36:00,72.2,65.7,29.70,South,180,4.5,5.4,80,0.00,,,0.00,WUHU216HW,2013-10-04 06:36:00,
2013-10-04 01:41:00,72.0,65.9,29.71,SSE,158,4.0,5.4,81,0.00,,,0.00,WUHU216HW,2013-10-04 06:41:00,
2013-10-04 01:46:00,71.8,66.1,29.71,South,180,4.5,8.5,82,0.00,,,0.00,WUHU216HW,2013-10-04 06:46:00,
2013-10-04 01:51:00,71.6,65.9,29.70,SSW,203,2.5,8.5,82,0.00,,,0.00,WUHU216HW,2013-10-04 06:51:00,
2013-10-04 01:56:00,71.6,65.9,29.70,South,180,2.9,7.2,82,0.00,,,0.00,WUHU216HW,2013-10-04 06:56:00,
2013-10-04 02:01:00,71.6,66.2,29.70,SSE,158,4.3,7.2,83,0.00,,,0.00,WUHU216HW,2013-10-04 07:01:00,
2013-10-04 02:06:00,71.5,66.0,29.70,SSE,158,4.0,5.4,83,0.00,,,0.00,WUHU216HW,2013-10-04 07:06:00,
2013-10-04 02:11:00,71.3,65.8,29.71,SSW,203,2.5,5.4,83,0.00,,,0.00,WUHU216HW,2013-10-04 07:11:00,
2013-10-04 02:16:00,71.3,66.2,29.71,SSE,158,2.5,5.4,84,0.00,,,0.00,WUHU216HW,2013-10-04 07:16:00,
2013-10-04 02:21:00,71.3,66.2,29.71,SSE,158,1.8,5.4,84,0.00,,,0.00,WUHU216HW,2013-10-04 07:21:00,
2013-10-04 02:26:00,71.1,66.0,29.70,South,180,2.2,6.5,84,0.00,,,0.00,WUHU216HW,2013-10-04 07:26:00,
2013-10-04 02:31:00,70.9,65.8,29.71,SSE,158,3.6,6.5,84,0.00,,,0.00,WUHU216HW,2013-10-04 07:31:00,
2013-10-04 02:36:00,70.9,65.8,29.71,SE,135,6.7,6.7,84,0.00,,,0.00,WUHU216HW,2013-10-04 07:36:00,
2013-10-04 02:41:00,70.9,65.8,29.71,SSW,203,2.9,6.7,84,0.00,,,0.00,WUHU216HW,2013-10-04 07:41:00,
2013-10-04 02:46:00,70.9,65.8,29.70,SSE,158,4.7,6.3,84,0.00,,,0.00,WUHU216HW,2013-10-04 07:46:00,
2013-10-04 02:51:00,70.9,65.8,29.71,SSW,203,4.7,6.3,84,0.00,,,0.00,WUHU216HW,2013-10-04 07:51:00,
2013-10-04 02:56:00,70.9,65.8,29.71,SSE,158,4.7,6.3,84,0.00,,,0.00,WUHU216HW,2013-10-04 07:56:00,
2013-10-04 03:01:00,70.9,65.8,29.71,WSW,248,1.8,6.3,84,0.00,,,0.00,WUHU216HW,2013-10-04 08:01:00,
2013-10-04 03:06:00,70.9,65.8,29.71,SSW,203,0.9,4.5,84,0.00,,,0.00,WUHU216HW,2013-10-04 08:06:00,
2013-10-04 03:11:00,70.9,65.8,29.70,SSE,158,2.0,4.5,84,0.00,,,0.00,WUHU216HW,2013-10-04 08:11:00,
2013-10-04 03:16:00,70.9,65.8,29.70,South,180,4.0,4.0,84,0.00,,,0.00,WUHU216HW,2013-10-04 08:16:00,
2013-10-04 03:21:00,71.1,66.0,29.70,SE,135,4.0,4.7,84,0.00,,,0.00,WUHU216HW,2013-10-04 08:21:00,
2013-10-04 03:26:00,71.1,66.0,29.70,SW,225,3.4,4.7,84,0.00,,,0.00,WUHU216HW,2013-10-04 08:26:00,
2013-10-04 03:31:00,71.3,66.2,29.70,South,180,3.4,4.7,84,0.00,,,0.00,WUHU216HW,2013-10-04 08:31:00,
2013-10-04 03:36:00,71.3,66.2,29.70,South,180,4.3,9.4,84,0.00,,,0.00,WUHU216HW,2013-10-04 08:36:00,
2013-10-04 03:41:00,71.5,66.3,29.70,South,180,3.1,9.4,84,0.00,,,0.00,WUHU216HW,2013-10-04 08:41:00,
2013-10-04 03:46:00,71.5,66.3,29.70,WSW,248,3.8,6.0,84,0.00,,,0.00,WUHU216HW,2013-10-04 08:46:00,
2013-10-04 03:51:00,71.6,66.5,29.70,SW,225,4.0,5.4,84,0.00,,,0.00,WUHU216HW,2013-10-04 08:51:00,
2013-10-04 03:56:00,71.6,66.5,29.70,SSW,203,2.5,5.4,84,0.00,,,0.00,WUHU216HW,2013-10-04 08:56:00,
2013-10-04 04:01:00,71.6,66.5,29.70,SSE,158,2.5,4.9,84,0.00,,,0.00,WUHU216HW,2013-10-04 09:01:00,
2013-10-04 04:06:00,71.5,66.3,29.70,SE,135,1.6,4.9,84,0.00,,,0.00,WUHU216HW,2013-10-04 09:06:00,
2013-10-04 04:11:00,71.6,66.5,29.70,South,180,3.1,4.7,84,0.00,,,0.00,WUHU216HW,2013-10-04 09:11:00,
2013-10-04 04:16:00,71.6,66.5,29.70,South,180,2.9,6.3,84,0.00,,,0.00,WUHU216HW,2013-10-04 09:16:00,
2013-10-04 04:21:00,71.6,66.5,29.70,South,180,4.3,6.3,84,0.00,,,0.00,WUHU216HW,2013-10-04 09:21:00,
2013-10-04 04:26:00,71.6,66.5,29.70,WSW,248,8.7,8.7,84,0.00,,,0.00,WUHU216HW,2013-10-04 09:26:00,
2013-10-04 04:31:00,71.6,66.5,29.70,SSE,158,4.7,8.7,84,0.00,,,0.00,WUHU216HW,2013-10-04 09:31:00,
2013-10-04 04:36:00,71.6,66.5,29.70,SSE,158,4.5,8.3,84,0.00,,,0.00,WUHU216HW,2013-10-04 09:36:00,
2013-10-04 04:41:00,71.6,66.5,29.70,South,180,4.3,8.3,84,0.00,,,0.00,WUHU216HW,2013-10-04 09:41:00,
2013-10-04 04:46:00,71.5,66.3,29.69,SSW,203,2.7,7.2,84,0.00,,,0.00,WUHU216HW,2013-10-04 09:46:00,
2013-10-04 04:51:00,71.3,66.2,29.69,SSE,158,3.1,7.2,84,0.00,,,0.00,WUHU216HW,2013-10-04 09:51:00,
2013-10-04 04:56:00,71.3,66.2,29.69,SSW,203,2.7,7.2,84,0.00,,,0.00,WUHU216HW,2013-10-04 09:56:00,
2013-10-04 05:01:00,71.1,66.0,29.69,South,180,3.8,7.8,84,0.00,,,0.00,WUHU216HW,2013-10-04 10:01:00,
2013-10-04 05:05:00,70.9,66.2,29.69,SSE,158,1.8,7.8,85,0.00,,,0.00,WUHU216HW,2013-10-04 10:05:00,
2013-10-04 05:10:00,70.9,66.2,29.69,SSE,158,3.6,7.6,85,0.00,,,0.00,WUHU216HW,2013-10-04 10:10:00,
2013-10-04 05:15:00,70.7,66.0,29.69,SSE,158,1.8,8.1,85,0.00,,,0.00,WUHU216HW,2013-10-04 10:15:00,
2013-10-04 05:20:00,70.6,65.8,29.69,South,180,5.4,8.1,85,0.00,,,0.00,WUHU216HW,2013-10-04 10:20:00,
2013-10-04 05:25:00,70.6,66.2,29.70,South,180,6.3,6.3,86,0.00,,,0.00,WUHU216HW,2013-10-04 10:25:00,
2013-10-04 05:30:00,70.4,66.0,29.70,South,180,3.6,6.3,86,0.00,,,0.00,WUHU216HW,2013-10-04 10:30:00,
2013-10-04 05:35:00,70.2,65.8,29.69,SSE,158,2.2,4.0,86,0.00,,,0.00,WUHU216HW,2013-10-04 10:35:00,
2013-10-04 05:40:00,70.0,65.6,29.70,South,180,1.1,2.7,86,0.00,,,0.00,WUHU216HW,2013-10-04 10:40:00,
2013-10-04 05:45:00,70.0,65.6,29.70,South,180,0.2,3.6,86,0.00,,,0.00,WUHU216HW,2013-10-04 10:45:00,
2013-10-04 05:50:00,69.8,65.4,29.70,SSW,203,1.1,3.6,86,0.00,,,0.00,WUHU216HW,2013-10-04 10:50:00,
2013-10-04 05:55:00,69.7,65.3,29.70,SSW,203,0.9,2.2,86,0.00,,,0.00,WUHU216HW,2013-10-04 10:55:00,
2013-10-04 06:01:00,69.5,64.7,29.70,SSW,203,1.8,2.0,85,0.00,,,0.00,WUHU216HW,2013-10-04 11:01:00,
2013-10-04 06:06:00,69.5,65.4,29.70,South,180,2.0,5.4,87,0.00,,,0.00,WUHU216HW,2013-10-04 11:06:00,
2013-10-04 06:11:00,69.5,65.4,29.70,SSE,158,1.8,5.4,87,0.00,,,0.00,WUHU216HW,2013-10-04 11:11:00,
2013-10-04 06:16:00,69.5,65.1,29.70,SSE,158,1.6,2.7,86,0.00,,,0.00,WUHU216HW,2013-10-04 11:16:00,
2013-10-04 06:21:00,69.5,65.1,29.70,SSW,203,0.9,2.5,86,0.00,,,0.00,WUHU216HW,2013-10-04 11:21:00,
2013-10-04 06:26:00,69.5,65.4,29.70,South,180,0.4,1.8,87,0.00,,,0.00,WUHU216HW,2013-10-04 11:26:00,
2013-10-04 06:31:00,69.7,65.6,29.70,SE,135,2.0,4.0,87,0.00,,,0.00,WUHU216HW,2013-10-04 11:31:00,
2013-10-04 06:36:00,69.7,65.6,29.71,ESE,113,0.2,4.0,87,0.00,,,0.00,WUHU216HW,2013-10-04 11:36:00,
2013-10-04 06:41:00,69.7,65.9,29.71,SE,135,2.2,4.3,88,0.00,,,0.00,WUHU216HW,2013-10-04 11:41:00,
2013-10-04 06:46:00,69.7,65.6,29.71,SE,135,1.8,4.3,87,0.00,,,0.00,WUHU216HW,2013-10-04 11:46:00,
2013-10-04 06:51:00,69.8,65.8,29.71,SW,225,2.0,3.6,87,0.00,,,0.00,WUHU216HW,2013-10-04 11:51:00,
2013-10-04 06:56:00,69.8,65.8,29.71,SE,135,1.3,2.5,87,0.00,,,0.00,WUHU216HW,2013-10-04 11:56:00,
2013-10-04 07:01:00,70.0,66.0,29.71,South,180,1.3,2.5,87,0.00,,,0.00,WUHU216HW,2013-10-04 12:01:00,
2013-10-04 07:06:00,70.0,66.0,29.71,ESE,113,4.0,4.0,87,0.00,,,0.00,WUHU216HW,2013-10-04 12:06:00,
2013-10-04 07:11:00,70.2,66.2,29.71,South,180,2.9,4.0,87,0.00,,,0.00,WUHU216HW,2013-10-04 12:11:00,
2013-10-04 07:15:00,70.2,66.2,29.71,SW,225,2.2,2.9,87,0.00,,,0.00,WUHU216HW,2013-10-04 12:15:00,
2013-10-04 07:20:00,70.4,66.3,29.71,SSE,158,1.8,2.2,87,0.00,,,0.00,WUHU216HW,2013-10-04 12:20:00,
2013-10-04 07:25:00,70.4,66.3,29.71,SSW,203,3.8,3.8,87,0.00,,,0.00,WUHU216HW,2013-10-04 12:25:00,
2013-10-04 07:30:00,70.4,66.3,29.71,South,180,0.9,3.8,87,0.00,,,0.00,WUHU216HW,2013-10-04 12:30:00,
2013-10-04 07:35:00,70.6,66.5,29.71,SE,135,2.5,4.0,87,0.00,,,0.00,WUHU216HW,2013-10-04 12:35:00,
2013-10-04 07:40:00,70.6,66.5,29.71,South,180,0.7,4.0,87,0.00,,,0.00,WUHU216HW,2013-10-04 12:40:00,
2013-10-04 07:45:00,70.6,66.2,29.71,SSE,158,2.0,2.2,86,0.00,,,0.00,WUHU216HW,2013-10-04 12:45:00,
2013-10-04 07:50:00,70.6,66.2,29.72,SSE,158,2.5,3.4,86,0.00,,,0.00,WUHU216HW,2013-10-04 12:50:00,
2013-10-04 07:55:00,70.7,66.3,29.72,SE,135,1.1,3.4,86,0.00,,,0.00,WUHU216HW,2013-10-04 12:55:00,
2013-10-04 08:00:00,70.9,66.5,29.72,SSE,158,1.6,2.5,86,0.00,,,0.00,WUHU216HW,2013-10-04 13:00:00,
2013-10-04 08:05:00,71.1,66.7,29.72,SSE,158,2.9,2.9,86,0.00,,,0.00,WUHU216HW,2013-10-04 13:05:00,
2013-10-04 08:10:00,71.6,67.2,29.72,SSE,158,0.9,4.0,86,0.00,,,0.00,WUHU216HW,2013-10-04 13:10:00,
2013-10-04 08:15:00,72.4,67.6,29.72,South,180,1.3,4.0,85,0.00,,,0.00,WUHU216HW,2013-10-04 13:15:00,
2013-10-04 08:20:00,72.7,67.6,29.72,South,180,2.9,2.9,84,0.00,,,0.00,WUHU216HW,2013-10-04 13:20:00,
2013-10-04 08:25:00,73.8,68.7,29.72,SSW,203,0.7,3.6,84,0.00,,,0.00,WUHU216HW,2013-10-04 13:25:00,
2013-10-04 08:30:00,75.8,69.6,29.72,SSE,158,3.8,5.1,81,0.00,,,0.00,WUHU216HW,2013-10-04 13:30:00,
2013-10-04 08:35:00,76.5,69.1,29.72,SSE,158,1.8,5.1,78,0.00,,,0.00,WUHU216HW,2013-10-04 13:35:00,
2013-10-04 08:40:00,76.1,69.2,29.72,SSE,158,1.1,3.6,79,0.00,,,0.00,WUHU216HW,2013-10-04 13:40:00,
2013-10-04 08:45:00,76.5,69.1,29.72,SSE,158,2.0,3.4,78,0.00,,,0.00,WUHU216HW,2013-10-04 13:45:00,
2013-10-04 08:50:00,79.2,70.9,29.72,SSE,158,3.4,4.0,76,0.00,,,0.00,WUHU216HW,2013-10-04 13:50:00,
2013-10-04 08:55:00,82.1,73.0,29.72,SW,225,2.5,4.0,74,0.00,,,0.00,WUHU216HW,2013-10-04 13:55:00,
2013-10-04 09:00:00,83.9,72.6,29.73,WSW,248,6.3,7.4,69,0.00,,,0.00,WUHU216HW,2013-10-04 14:00:00,
2013-10-04 09:05:00,84.2,72.5,29.73,SSW,203,4.3,7.4,68,0.00,,,0.00,WUHU216HW,2013-10-04 14:05:00,
2013-10-04 09:10:00,83.0,70.8,29.73,SW,225,4.9,7.2,67,0.00,,,0.00,WUHU216HW,2013-10-04 14:10:00,
2013-10-04 09:15:00,80.8,69.8,29.73,SW,225,4.3,8.7,69,0.00,,,0.00,WUHU216HW,2013-10-04 14:15:00,
2013-10-04 09:20:00,79.7,69.5,29.73,SSW,203,2.5,9.4,71,0.00,,,0.00,WUHU216HW,2013-10-04 14:20:00,
2013-10-04 09:25:00,79.0,68.8,29.73,South,180,6.7,9.4,71,0.00,,,0.00,WUHU216HW,2013-10-04 14:25:00,
2013-10-04 09:30:00,78.5,68.7,29.73,SSW,203,3.4,10.5,72,0.00,,,0.00,WUHU216HW,2013-10-04 14:30:00,
2013-10-04 09:35:00,81.4,71.1,29.73,SW,225,6.0,10.5,71,0.00,,,0.00,WUHU216HW,2013-10-04 14:35:00,
2013-10-04 09:40:00,84.2,71.6,29.73,South,180,3.4,10.7,66,0.00,,,0.00,WUHU216HW,2013-10-04 14:40:00,
2013-10-04 09:45:00,84.1,70.6,29.73,WSW,248,11.6,12.1,64,0.00,,,0.00,WUHU216HW,2013-10-04 14:45:00,
2013-10-04 09:50:00,81.7,68.8,29.73,SW,225,6.3,12.1,65,0.00,,,0.00,WUHU216HW,2013-10-04 14:50:00,
2013-10-04 09:55:00,80.3,68.3,29.73,SW,225,4.0,11.0,67,0.00,,,0.00,WUHU216HW,2013-10-04 14:55:00,
2013-10-04 10:00:00,79.9,68.4,29.73,WSW,248,11.2,11.2,68,0.00,,,0.00,WUHU216HW,2013-10-04 15:00:00,
2013-10-04 10:05:00,80.3,68.8,29.73,SSW,203,4.0,11.2,68,0.00,,,0.00,WUHU216HW,2013-10-04 15:05:00,
2013-10-04 10:10:00,81.5,69.9,29.73,SW,225,2.2,9.4,68,0.00,,,0.00,WUHU216HW,2013-10-04 15:10:00,
2013-10-04 10:15:00,82.6,70.0,29.73,SSW,203,8.5,8.5,66,0.00,,,0.00,WUHU216HW,2013-10-04 15:15:00,
2013-10-04 10:17:00,83.0,70.4,29.73,SSW,203,4.0,8.5,66,0.00,,,0.00,WUHU216HW,2013-10-04 15:17:00,
2013-10-04 10:22:00,85.9,72.3,29.73,SW,225,6.3,8.5,64,0.00,,,0.00,WUHU216HW,2013-10-04 15:22:00,
2013-10-04 10:27:00,88.6,71.9,29.73,SSW,203,7.6,11.0,58,0.00,,,0.00,WUHU216HW,2013-10-04 15:27:00,
2013-10-04 10:32:00,88.7,71.0,29.73,SW,225,7.6,11.0,56,0.00,,,0.00,WUHU216HW,2013-10-04 15:32:00,
2013-10-04 10:37:00,89.3,71.5,29.73,WSW,248,5.4,8.5,56,0.00,,,0.00,WUHU216HW,2013-10-04 15:37:00,
2013-10-04 10:42:00,90.0,71.1,29.73,WSW,248,6.0,8.5,54,0.00,,,0.00,WUHU216HW,2013-10-04 15:42:00,
2013-10-04 10:47:00,88.2,69.5,29.73,WSW,248,11.4,11.4,54,0.00,,,0.00,WUHU216HW,2013-10-04 15:47:00,
2013-10-04 10:52:00,86.0,68.5,29.73,SSW,203,3.4,11.4,56,0.00,,,0.00,WUHU216HW,2013-10-04 15:52:00,
2013-10-04 10:57:00,85.7,69.8,29.73,SSW,203,4.9,10.3,59,0.00,,,0.00,WUHU216HW,2013-10-04 15:57:00,
2013-10-04 11:02:00,85.5,68.5,29.73,SW,225,5.4,10.3,57,0.00,,,0.00,WUHU216HW,2013-10-04 16:02:00,
2013-10-04 11:07:00,85.7,69.2,29.73,SSW,203,8.7,13.6,58,0.00,,,0.00,WUHU216HW,2013-10-04 16:07:00,
2013-10-04 11:12:00,86.8,69.1,29.73,SSE,158,8.1,13.6,56,0.00,,,0.00,WUHU216HW,2013-10-04 16:12:00,
2013-10-04 11:17:00,88.9,70.1,29.73,South,180,8.9,11.6,54,0.00,,,0.00,WUHU216HW,2013-10-04 16:17:00,
2013-10-04 11:23:00,90.5,69.9,29.72,SSW,203,6.0,11.6,51,0.00,,,0.00,WUHU216HW,2013-10-04 16:23:00,
2013-10-04 11:28:00,90.4,70.8,29.72,WNW,293,6.7,10.7,53,0.00,,,0.00,WUHU216HW,2013-10-04 16:28:00,
2013-10-04 11:33:00,91.1,70.4,29.73,SW,225,6.3,10.7,51,0.00,,,0.00,WUHU216HW,2013-10-04 16:33:00,
2013-10-04 11:37:00,90.4,70.3,29.73,WSW,248,5.8,9.2,52,0.00,,,0.00,WUHU216HW,2013-10-04 16:37:00,
2013-10-04 11:43:00,91.4,69.0,29.72,South,180,9.8,9.8,48,0.00,,,0.00,WUHU216HW,2013-10-04 16:43:00,
2013-10-04 11:48:00,91.4,69.0,29.72,SE,135,4.7,9.8,48,0.00,,,0.00,WUHU216HW,2013-10-04 16:48:00,
2013-10-04 11:53:00,91.4,69.6,29.72,South,180,6.3,9.2,49,0.00,,,0.00,WUHU216HW,2013-10-04 16:53:00,
2013-10-04 11:57:00,91.1,69.8,29.72,SW,225,4.9,9.2,50,0.00,,,0.00,WUHU216HW,2013-10-04 16:57:00,
2013-10-04 12:03:00,92.9,70.2,29.72,SSE,158,6.0,9.2,48,0.00,,,0.00,WUHU216HW,2013-10-04 17:03:00,
2013-10-04 12:07:00,93.8,69.8,29.72,South,180,2.5,9.2,46,0.00,,,0.00,WUHU216HW,2013-10-04 17:07:00,
2013-10-04 12:12:00,95.0,70.3,29.71,South,180,2.7,7.2,45,0.00,,,0.00,WUHU216HW,2013-10-04 17:12:00,
2013-10-04 12:17:00,95.6,68.8,29.72,South,180,4.0,9.6,42,0.00,,,0.00,WUHU216HW,2013-10-04 17:17:00,
2013-10-04 12:22:00,94.0,68.6,29.72,SW,225,8.7,10.5,44,0.00,,,0.00,WUHU216HW,2013-10-04 17:22:00,
2013-10-04 12:27:00,93.4,67.4,29.71,SSE,158,4.9,15.0,43,0.00,,,0.00,WUHU216HW,2013-10-04 17:27:00,
2013-10-04 12:32:00,92.9,67.6,29.71,ESE,113,8.5,15.0,44,0.00,,,0.00,WUHU216HW,2013-10-04 17:32:00,
2013-10-04 13:02:00,93.8,68.4,29.71,South,180,9.2,13.6,44,0.00,,,0.00,WUHU216HW,2013-10-04 18:02:00,
2013-10-04 13:07:00,94.3,69.6,29.71,SE,135,4.9,10.7,45,0.00,,,0.00,WUHU216HW,2013-10-04 18:07:00,
2013-10-04 13:12:00,93.8,69.1,29.71,WSW,248,7.6,12.8,45,0.00,,,0.00,WUHU216HW,2013-10-04 18:12:00,
2013-10-04 13:17:00,94.5,68.5,29.71,South,180,3.4,12.8,43,0.00,,,0.00,WUHU216HW,2013-10-04 18:17:00,
2013-10-04 13:22:00,94.7,67.3,29.70,SW,225,2.7,7.6,41,0.00,,,0.00,WUHU216HW,2013-10-04 18:22:00,
2013-10-04 13:27:00,95.4,69.9,29.70,SSW,203,3.1,10.3,44,0.00,,,0.00,WUHU216HW,2013-10-04 18:27:00,
2013-10-04 13:32:00,96.7,69.1,29.70,South,180,4.5,10.3,41,0.00,,,0.00,WUHU216HW,2013-10-04 18:32:00,
2013-10-04 13:37:00,96.3,68.8,29.70,West,270,9.4,9.8,41,0.00,,,0.00,WUHU216HW,2013-10-04 18:37:00,
2013-10-04 13:42:00,96.1,69.3,29.70,SSE,158,2.5,13.2,42,0.00,,,0.00,WUHU216HW,2013-10-04 18:42:00,
2013-10-04 13:47:00,96.1,68.6,29.69,South,180,4.3,13.2,41,0.00,,,0.00,WUHU216HW,2013-10-04 18:47:00,
2013-10-04 13:52:00,96.5,69.0,29.69,SW,225,6.9,7.6,41,0.00,,,0.00,WUHU216HW,2013-10-04 18:52:00,
2013-10-04 13:57:00,94.5,67.2,29.69,South,180,4.7,6.9,41,0.00,,,0.00,WUHU216HW,2013-10-04 18:57:00,
2013-10-04 14:02:00,93.2,67.3,29.69,SE,135,7.2,7.6,43,0.00,,,0.00,WUHU216HW,2013-10-04 19:02:00,
2013-10-04 14:08:00,92.0,66.8,29.69,SSW,203,6.0,7.6,44,0.00,,,0.00,WUHU216HW,2013-10-04 19:08:00,
2013-10-04 14:13:00,93.1,68.4,29.68,SW,225,3.1,9.2,45,0.00,,,0.00,WUHU216HW,2013-10-04 19:13:00,
2013-10-04 14:18:00,95.2,69.1,29.68,SSW,203,9.6,9.6,43,0.00,,,0.00,WUHU216HW,2013-10-04 19:18:00,
2013-10-04 14:23:00,95.4,69.3,29.68,SSE,158,5.4,9.6,43,0.00,,,0.00,WUHU216HW,2013-10-04 19:23:00,
2013-10-04 14:28:00,95.6,68.8,29.68,South,180,4.9,12.3,42,0.00,,,0.00,WUHU216HW,2013-10-04 19:28:00,
2013-10-04 14:33:00,94.0,67.3,29.67,South,180,6.3,12.3,42,0.00,,,0.00,WUHU216HW,2013-10-04 19:33:00,
2013-10-04 14:38:00,93.6,69.0,29.68,SSW,203,4.7,6.3,45,0.00,,,0.00,WUHU216HW,2013-10-04 19:38:00,
2013-10-04 14:43:00,95.6,69.5,29.67,WSW,248,5.8,10.1,43,0.00,,,0.00,WUHU216HW,2013-10-04 19:43:00,
2013-10-04 14:47:00,95.4,68.6,29.67,SSW,203,4.5,10.1,42,0.00,,,0.00,WUHU216HW,2013-10-04 19:47:00,
2013-10-04 14:53:00,93.2,67.3,29.67,South,180,3.4,6.7,43,0.00,,,0.00,WUHU216HW,2013-10-04 19:53:00,
2013-10-04 14:58:00,92.0,66.8,29.67,SW,225,4.7,7.6,44,0.00,,,0.00,WUHU216HW,2013-10-04 19:58:00,
2013-10-04 15:03:00,90.9,67.8,29.67,SSE,158,4.5,7.6,47,0.00,,,0.00,WUHU216HW,2013-10-04 20:03:00,
2013-10-04 15:08:00,91.3,68.1,29.67,South,180,6.3,11.4,47,0.00,,,0.00,WUHU216HW,2013-10-04 20:08:00,
2013-10-04 15:12:00,91.3,66.8,29.67,ESE,113,2.7,11.4,45,0.00,,,0.00,WUHU216HW,2013-10-04 20:12:00,
2013-10-04 15:17:00,91.4,68.2,29.67,SW,225,4.0,6.9,47,0.00,,,0.00,WUHU216HW,2013-10-04 20:17:00,
2013-10-04 15:22:00,90.5,66.8,29.67,SSE,158,4.0,9.8,46,0.00,,,0.00,WUHU216HW,2013-10-04 20:22:00,
2013-10-04 15:27:00,90.5,67.4,29.67,SE,135,4.0,9.8,47,0.00,,,0.00,WUHU216HW,2013-10-04 20:27:00,
2013-10-04 15:32:00,89.8,67.4,29.67,SSE,158,2.0,9.6,48,0.00,,,0.00,WUHU216HW,2013-10-04 20:32:00,
2013-10-04 15:38:00,89.3,67.0,29.67,South,180,8.7,9.6,48,0.00,,,0.00,WUHU216HW,2013-10-04 20:38:00,
2013-10-04 15:43:00,88.6,66.3,29.67,South,180,10.5,10.5,48,0.00,,,0.00,WUHU216HW,2013-10-04 20:43:00,
2013-10-04 15:47:00,88.2,67.3,29.67,SSW,203,2.7,11.0,50,0.00,,,0.00,WUHU216HW,2013-10-04 20:47:00,
2013-10-04 15:53:00,88.4,66.8,29.67,SW,225,4.0,11.0,49,0.00,,,0.00,WUHU216HW,2013-10-04 20:53:00,
2013-10-04 15:58:00,87.8,67.0,29.66,SE,135,7.6,8.5,50,0.00,,,0.00,WUHU216HW,2013-10-04 20:58:00,
2013-10-04 16:03:00,88.0,67.2,29.67,WSW,248,7.4,10.3,50,0.00,,,0.00,WUHU216HW,2013-10-04 21:03:00,
2013-10-04 16:08:00,87.8,67.5,29.67,SW,225,8.5,10.3,51,0.00,,,0.00,WUHU216HW,2013-10-04 21:08:00,
2013-10-04 16:13:00,87.7,67.9,29.66,South,180,2.5,8.5,52,0.00,,,0.00,WUHU216HW,2013-10-04 21:13:00,
2013-10-04 16:18:00,87.8,67.5,29.67,SSW,203,6.9,6.9,51,0.00,,,0.00,WUHU216HW,2013-10-04 21:18:00,
2013-10-04 16:23:00,87.7,66.8,29.66,South,180,3.4,9.6,50,0.00,,,0.00,WUHU216HW,2013-10-04 21:23:00,
2013-10-04 16:28:00,87.1,67.4,29.66,SSE,158,8.1,9.6,52,0.00,,,0.00,WUHU216HW,2013-10-04 21:28:00,
2013-10-04 16:33:00,87.1,67.4,29.66,South,180,4.9,9.2,52,0.00,,,0.00,WUHU216HW,2013-10-04 21:33:00,
2013-10-04 16:38:00,87.7,67.9,29.66,SSE,158,5.8,8.3,52,0.00,,,0.00,WUHU216HW,2013-10-04 21:38:00,
2013-10-04 16:43:00,87.5,67.7,29.66,South,180,1.8,11.4,52,0.00,,,0.00,WUHU216HW,2013-10-04 21:43:00,
2013-10-04 16:48:00,87.5,67.7,29.66,South,180,4.3,11.4,52,0.00,,,0.00,WUHU216HW,2013-10-04 21:48:00,
2013-10-04 16:53:00,87.3,67.5,29.66,SSW,203,3.8,7.4,52,0.00,,,0.00,WUHU216HW,2013-10-04 21:53:00,
2013-10-04 16:58:00,87.5,67.7,29.66,South,180,5.1,9.6,52,0.00,,,0.00,WUHU216HW,2013-10-04 21:58:00,
2013-10-04 17:03:00,87.1,67.4,29.66,South,180,9.4,9.6,52,0.00,,,0.00,WUHU216HW,2013-10-04 22:03:00,
2013-10-04 17:08:00,86.9,67.2,29.66,South,180,3.4,9.4,52,0.00,,,0.00,WUHU216HW,2013-10-04 22:08:00,
2013-10-04 17:13:00,86.9,67.2,29.66,South,180,9.2,9.2,52,0.00,,,0.00,WUHU216HW,2013-10-04 22:13:00,
2013-10-04 17:18:00,86.9,67.2,29.66,WSW,248,4.0,9.2,52,0.00,,,0.00,WUHU216HW,2013-10-04 22:18:00,
2013-10-04 17:23:00,86.8,67.6,29.66,SSW,203,6.3,6.9,53,0.00,,,0.00,WUHU216HW,2013-10-04 22:23:00,
2013-10-04 17:28:00,86.4,66.7,29.66,SSW,203,5.1,6.3,52,0.00,,,0.00,WUHU216HW,2013-10-04 22:28:00,
2013-10-04 17:33:00,86.2,67.1,29.66,South,180,7.4,7.4,53,0.00,,,0.00,WUHU216HW,2013-10-04 22:33:00,
2013-10-04 17:38:00,86.2,67.1,29.66,South,180,4.7,7.8,53,0.00,,,0.00,WUHU216HW,2013-10-04 22:38:00,
2013-10-04 17:43:00,86.0,66.9,29.66,SSW,203,7.2,7.8,53,0.00,,,0.00,WUHU216HW,2013-10-04 22:43:00,
2013-10-04 17:48:00,86.2,67.6,29.66,South,180,2.2,7.2,54,0.00,,,0.00,WUHU216HW,2013-10-04 22:48:00,
2013-10-04 17:53:00,86.4,67.8,29.66,SW,225,3.4,6.3,54,0.00,,,0.00,WUHU216HW,2013-10-04 22:53:00,
2013-10-04 17:58:00,86.2,67.6,29.66,SW,225,4.9,7.4,54,0.00,,,0.00,WUHU216HW,2013-10-04 22:58:00,
2013-10-04 18:03:00,86.4,67.8,29.66,SSW,203,4.3,7.4,54,0.00,,,0.00,WUHU216HW,2013-10-04 23:03:00,
2013-10-04 18:07:00,86.4,68.3,29.66,South,180,4.5,5.1,55,0.00,,,0.00,WUHU216HW,2013-10-04 23:07:00,
2013-10-04 18:13:00,86.0,68.0,29.66,SSW,203,4.0,4.7,55,0.00,,,0.00,WUHU216HW,2013-10-04 23:13:00,
2013-10-04 18:17:00,85.7,67.6,29.66,SSW,203,2.2,5.6,55,0.00,,,0.00,WUHU216HW,2013-10-04 23:17:00,
2013-10-04 18:22:00,85.3,67.9,29.66,South,180,3.8,5.6,56,0.00,,,0.00,WUHU216HW,2013-10-04 23:22:00,
2013-10-04 18:27:00,85.3,67.9,29.67,SSE,158,2.5,7.6,56,0.00,,,0.00,WUHU216HW,2013-10-04 23:27:00,
2013-10-04 18:32:00,85.3,67.9,29.67,South,180,2.0,7.6,56,0.00,,,0.00,WUHU216HW,2013-10-04 23:32:00,
2013-10-04 18:37:00,85.0,67.5,29.67,SSE,158,3.8,7.4,56,0.00,,,0.00,WUHU216HW,2013-10-04 23:37:00,
2013-10-04 18:42:00,84.8,67.9,29.67,SE,135,5.1,5.1,57,0.00,,,0.00,WUHU216HW,2013-10-04 23:42:00,
2013-10-04 18:47:00,84.6,67.7,29.67,SSW,203,2.9,5.1,57,0.00,,,0.00,WUHU216HW,2013-10-04 23:47:00,
2013-10-04 18:52:00,84.4,67.5,29.67,South,180,2.9,5.4,57,0.00,,,0.00,WUHU216HW,2013-10-04 23:52:00,
2013-10-04 18:57:00,84.1,67.7,29.67,SSW,203,2.7,5.4,58,0.00,,,0.00,WUHU216HW,2013-10-04 23:57:00,
2013-10-04 19:02:00,83.9,67.5,29.68,South,180,1.8,4.0,58,0.00,,,0.00,WUHU216HW,2013-10-05 00:02:00,
2013-10-04 19:07:00,83.5,67.7,29.68,SSE,158,2.0,3.6,59,0.00,,,0.00,WUHU216HW,2013-10-05 00:07:00,
2013-10-04 19:12:00,83.2,66.8,29.68,SSE,158,0.7,3.6,58,0.00,,,0.00,WUHU216HW,2013-10-05 00:12:00,
2013-10-04 19:18:00,82.6,66.8,29.68,SSE,158,0.0,0.9,59,0.00,,,0.00,WUHU216HW,2013-10-05 00:18:00,
2013-10-04 19:23:00,82.4,67.1,29.68,SSE,158,0.4,0.9,60,0.00,,,0.00,WUHU216HW,2013-10-05 00:23:00,
2013-10-04 19:28:00,82.1,66.8,29.68,SSE,158,0.0,0.9,60,0.00,,,0.00,WUHU216HW,2013-10-05 00:28:00,
2013-10-04 19:33:00,81.7,67.0,29.68,SSW,203,0.0,1.1,61,0.00,,,0.00,WUHU216HW,2013-10-05 00:33:00,
2013-10-04 19:38:00,81.4,66.6,29.68,SSW,203,0.0,1.1,61,0.00,,,0.00,WUHU216HW,2013-10-05 00:38:00,
2013-10-04 19:43:00,81.0,66.8,29.68,SSW,203,0.0,0.0,62,0.00,,,0.00,WUHU216HW,2013-10-05 00:43:00,
2013-10-04 19:48:00,80.3,66.5,29.68,SSW,203,0.0,0.0,63,0.00,,,0.00,WUHU216HW,2013-10-05 00:48:00,
2013-10-04 19:53:00,79.7,66.5,29.68,SSW,203,0.0,0.0,64,0.00,,,0.00,WUHU216HW,2013-10-05 00:53:00,
2013-10-04 19:58:00,79.2,66.0,29.68,SSW,203,0.0,0.0,64,0.00,,,0.00,WUHU216HW,2013-10-05 00:58:00,
2013-10-04 20:03:00,78.8,66.1,29.69,SSW,203,0.0,0.0,65,0.00,,,0.00,WUHU216HW,2013-10-05 01:03:00,
2013-10-04 20:08:00,78.5,66.2,29.69,SSW,203,0.0,0.0,66,0.00,,,0.00,WUHU216HW,2013-10-05 01:08:00,
2013-10-04 20:13:00,78.1,65.8,29.69,SSW,203,0.0,0.0,66,0.00,,,0.00,WUHU216HW,2013-10-05 01:13:00,
2013-10-04 20:18:00,77.9,66.1,29.69,SSW,203,0.0,0.0,67,0.00,,,0.00,WUHU216HW,2013-10-05 01:18:00,
2013-10-04 20:23:00,77.4,65.6,29.69,SSW,203,0.0,0.0,67,0.00,,,0.00,WUHU216HW,2013-10-05 01:23:00,
2013-10-04 20:28:00,77.0,65.7,29.69,SSW,203,0.0,0.0,68,0.00,,,0.00,WUHU216HW,2013-10-05 01:28:00,
2013-10-04 20:33:00,76.7,65.8,29.70,SSW,203,0.0,0.0,69,0.00,,,0.00,WUHU216HW,2013-10-05 01:33:00,
2013-10-04 20:38:00,76.5,66.1,29.69,SSW,203,0.0,0.0,70,0.00,,,0.00,WUHU216HW,2013-10-05 01:38:00,
2013-10-04 20:43:00,76.1,65.7,29.70,SSW,203,0.0,0.0,70,0.00,,,0.00,WUHU216HW,2013-10-05 01:43:00,
2013-10-04 20:48:00,76.0,65.9,29.70,SSW,203,0.0,0.0,71,0.00,,,0.00,WUHU216HW,2013-10-05 01:48:00,
2013-10-04 20:53:00,75.6,65.5,29.70,SSW,203,0.0,0.0,71,0.00,,,0.00,WUHU216HW,2013-10-05 01:53:00,
2013-10-04 20:58:00,75.2,65.6,29.71,SSW,203,0.0,0.0,72,0.00,,,0.00,WUHU216HW,2013-10-05 01:58:00,
2013-10-04 21:03:00,75.1,65.4,29.71,SSW,203,0.0,0.0,72,0.00,,,0.00,WUHU216HW,2013-10-05 02:03:00,
2013-10-04 21:08:00,74.9,65.3,29.71,SSW,203,0.0,0.0,72,0.00,,,0.00,WUHU216HW,2013-10-05 02:08:00,
2013-10-04 21:13:00,74.5,66.1,29.71,SSE,158,0.4,1.3,75,0.00,,,0.00,WUHU216HW,2013-10-05 02:13:00,
2013-10-04 21:18:00,74.7,66.2,29.71,SSE,158,0.0,1.3,75,0.00,,,0.00,WUHU216HW,2013-10-05 02:18:00,
2013-10-04 21:23:00,75.2,66.8,29.71,South,180,0.9,1.8,75,0.00,,,0.00,WUHU216HW,2013-10-05 02:23:00,
2013-10-04 21:28:00,75.8,67.3,29.71,SE,135,0.4,2.5,75,0.00,,,0.00,WUHU216HW,2013-10-05 02:28:00,
2013-10-04 21:33:00,76.3,67.4,29.71,SSE,158,1.6,2.5,74,0.00,,,0.00,WUHU216HW,2013-10-05 02:33:00,
2013-10-04 21:38:00,76.7,67.8,29.71,SE,135,1.1,2.5,74,0.00,,,0.00,WUHU216HW,2013-10-05 02:38:00,
2013-10-04 21:43:00,76.7,67.8,29.71,South,180,4.3,6.5,74,0.00,,,0.00,WUHU216HW,2013-10-05 02:43:00,
2013-10-04 21:48:00,77.0,68.5,29.71,SSE,158,1.6,6.5,75,0.00,,,0.00,WUHU216HW,2013-10-05 02:48:00,
2013-10-04 21:53:00,77.4,68.9,29.71,South,180,4.9,6.3,75,0.00,,,0.00,WUHU216HW,2013-10-05 02:53:00,
2013-10-04 21:58:00,77.8,68.8,29.71,SSE,158,4.9,6.3,74,0.00,,,0.00,WUHU216HW,2013-10-05 02:58:00,
2013-10-04 22:03:00,78.1,69.1,29.71,SSE,158,6.0,7.6,74,0.00,,,0.00,WUHU216HW,2013-10-05 03:03:00,
2013-10-04 22:08:00,78.3,69.3,29.72,SSE,158,4.0,11.6,74,0.00,,,0.00,WUHU216HW,2013-10-05 03:08:00,
2013-10-04 22:13:00,78.1,69.1,29.72,SSE,158,2.9,11.6,74,0.00,,,0.00,WUHU216HW,2013-10-05 03:13:00,
2013-10-04 22:18:00,78.1,69.1,29.72,SE,135,1.6,6.9,74,0.00,,,0.00,WUHU216HW,2013-10-05 03:18:00,
2013-10-04 22:23:00,77.9,68.9,29.72,SSE,158,3.4,6.9,74,0.00,,,0.00,WUHU216HW,2013-10-05 03:23:00,
2013-10-04 22:28:00,77.9,68.9,29.72,SSW,203,3.8,8.7,74,0.00,,,0.00,WUHU216HW,2013-10-05 03:28:00,
2013-10-04 22:33:00,77.8,69.2,29.72,SSE,158,4.0,8.7,75,0.00,,,0.00,WUHU216HW,2013-10-05 03:33:00,
2013-10-04 22:38:00,77.6,69.0,29.72,SE,135,4.0,6.5,75,0.00,,,0.00,WUHU216HW,2013-10-05 03:38:00,
2013-10-04 22:43:00,77.4,68.9,29.73,South,180,6.9,6.9,75,0.00,,,0.00,WUHU216HW,2013-10-05 03:43:00,
2013-10-04 22:48:00,77.2,68.7,29.72,South,180,3.4,6.9,75,0.00,,,0.00,WUHU216HW,2013-10-05 03:48:00,
2013-10-04 22:53:00,77.0,68.5,29.72,SSW,203,5.4,5.4,75,0.00,,,0.00,WUHU216HW,2013-10-05 03:53:00,
2013-10-04 22:58:00,77.0,68.9,29.72,SSE,158,3.8,10.3,76,0.00,,,0.00,WUHU216HW,2013-10-05 03:58:00,
2013-10-04 23:01:00,76.9,68.7,29.72,South,180,2.5,10.3,76,0.00,,,0.00,WUHU216HW,2013-10-05 04:01:00,
2013-10-04 23:06:00,76.7,68.5,29.72,South,180,3.6,5.1,76,0.00,,,0.00,WUHU216HW,2013-10-05 04:06:00,
2013-10-04 23:11:00,76.5,68.4,29.72,SSW,203,4.0,5.1,76,0.00,,,0.00,WUHU216HW,2013-10-05 04:11:00,
2013-10-04 23:16:00,76.3,68.6,29.72,South,180,3.8,4.7,77,0.00,,,0.00,WUHU216HW,2013-10-05 04:16:00,
2013-10-04 23:21:00,76.1,68.4,29.72,South,180,1.8,5.8,77,0.00,,,0.00,WUHU216HW,2013-10-05 04:21:00,
2013-10-04 23:26:00,76.0,68.2,29.72,WSW,248,3.4,5.8,77,0.00,,,0.00,WUHU216HW,2013-10-05 04:26:00,
2013-10-04 23:31:00,75.8,68.0,29.72,South,180,3.4,6.0,77,0.00,,,0.00,WUHU216HW,2013-10-05 04:31:00,
2013-10-04 23:36:00,75.6,68.3,29.72,SSW,203,10.1,10.1,78,0.00,,,0.00,WUHU216HW,2013-10-05 04:36:00,
2013-10-04 23:41:00,75.6,68.3,29.72,South,180,7.6,10.1,78,0.00,,,0.00,WUHU216HW,2013-10-05 04:41:00,
2013-10-04 23:46:00,75.6,68.3,29.72,South,180,2.9,8.5,78,0.00,,,0.00,WUHU216HW,2013-10-05 04:46:00,
2013-10-04 23:51:00,75.4,68.1,29.72,SE,135,4.3,8.1,78,0.00,,,0.00,WUHU216HW,2013-10-05 04:51:00,
2013-10-04 23:56:00,75.2,68.4,29.72,ENE,68,1.8,5.4,79,0.00,,,0.00,WUHU216HW,2013-10-05 04:56:00,